Regional Weather Roundup
Issued by NWS

Home | Current Version | Previous Version | Text Only | Print | Product List | Glossary Off
Versions: 1 2 3 4 5 6 7 8 9 10 11 12 13 14 15 16 17 18 19 20 21 22 23 24 25 26 27 28

000
ASUS45 KSLC 240010
RWRUT

UTAH REGIONAL WEATHER ROUNDUP
NATIONAL WEATHER SERVICE SALT LAKE CITY UT
600 PM MDT MON OCT 23 2017

UTZ001>011-023>025-240100-

NORTHERN UTAH

CITY           SKY/WX    TMP DP  RH WIND       PRES   REMARKS
BRIGHAM CITY   PTCLDY    60  27  28 NW7       30.59S
HILL AFB       CLEAR     57  29  33 NW6       30.59R
LOGAN          PTCLDY    56  33  42 N6        30.59R
OGDEN          MOCLDY    57  30  35 NW6       30.58R
SALT LAKE CITY MOCLDY    62  33  33 NW12      30.58R
TOOELE VALLEY  MOCLDY    57  37  47 N7        30.60R
WENDOVER       CLEAR     62  40  44 CALM      30.58R
HEBER CITY       N/A     57  23  26 SW8       30.55R
WEST JORDAN    MOCLDY    59  35  40 N9        30.59S

$$

UTZ011>015-024>027-240100-

CENTRAL/NORTHEAST UTAH

CITY           SKY/WX    TMP DP  RH WIND       PRES   REMARKS
PROVO AIRPORT  PTCLDY    59  36  42 NW12      30.57S
MOAB/CANYONLAN PTCLDY    70  29  21 SE6       30.38S
DELTA          PTCLDY    61  34  36 NW13      30.55S
PRICE          PTCLDY    61  26  26 N17G24    30.51R
ROOSEVELT      CLEAR     63  28  27 SE3       30.47R
VERNAL         CLEAR     64  26  23 CALM      30.46R

$$

UTZ013>016-019>022-027-240100-

SOUTHERN UTAH

CITY           SKY/WX    TMP DP  RH WIND       PRES   REMARKS
BRYCE CANYON   CLEAR     63  29  27 N12       30.57R
CEDAR CITY     CLEAR     63  35  35 N16G25    30.51R
MILFORD        CLEAR     65  36  34 NE22      30.52S
ST GEORGE      MOCLDY    82  34  17 S3        30.29S
HANKSVILLE     CLEAR     72  28  20 CALM      30.41S
BLANDING         N/A     68  20  16 W3        30.49R

$$

REGIONAL REPORTS     COLORADO/ARIZONA

CITY           SKY/WX    TMP DP  RH WIND       PRES   REMARKS
CRAIG, CO      CLEAR     54  18  24 NW8       30.52R
GRAND JUNCTION CLEAR     63  30  28 N7        30.41R
RIFLE, CO      CLEAR     64  22  20 NW9       30.44R
MONTROSE, CO   CLOUDY    61  28  28 N7        30.46R
CORTEZ, CO     CLEAR     68  25  19 NW14G24   30.40R
COLORADO CITY    N/A     77  34  20 NW15      30.41R
PAGE, AZ       CLEAR     73  28  18 N5        30.36S
GRAND CANYON   PTCLDY    68  20  16 NE10      30.49R
KINGMAN, AZ    CLEAR     82  29  14 N20       30.27S
FLAGSTAFF, AZ  CLEAR     67  19  16 NE12      30.48S

$$

REGIONAL REPORTS    NEVADA/IDAHO/WYOMING

CITY           SKY/WX    TMP DP  RH WIND       PRES   REMARKS
LAS VEGAS, NV  CLEAR     90  34  13 N12       30.23S
ELY, NY        LGT RAIN  65  34  31 N15       30.57S
ELKO, NV       CLEAR     68  33  27 CALM      30.58R
POCATELLO, ID  CLOUDY    54  34  46 SW13      30.63R
BURLEY, ID     PTCLDY    55  36  48 W8        30.61F
FORT BRIDGER,    N/A     49  19  29 NW9       30.64R
EVANSTON, WY   CLOUDY    50  19  29 NW9       30.62R
ROCK SPRINGS,  CLOUDY    51  16  24 W17       30.54R
KEMMERER, WY   CLOUDY    46  19  34 NW14G20   30.63R

$$




USA.gov is the U.S. government's official web portal to all federal, state and local government web resources and services.